period_start,C,m1,H,J0,J1,J2,J3,J4,J5,JA,JB,JC,JD,JJ,JK,JN,#
2017-01-29 00:04:31,0.07,14.27,0.00,20.98,24.73,28.24,14.64,55.63,1007.33,2034.08,929.79,1142.90,1272.85,600.25,594.87,48.91,0000 0000 0000 0000 000000
2017-01-29 00:09:32,0.26,14.29,0.00,20.97,24.72,28.23,14.65,55.83,1007.34,2034.13,929.04,1142.13,1272.07,600.07,594.80,48.96,0000 0000 0000 0000 000000
2017-01-29 00:14:34,0.12,14.29,0.00,20.98,24.72,28.18,14.63,55.60,1007.66,2034.12,928.39,1141.99,1271.85,600.24,595.05,49.01,0000 0000 0000 0000 000000
2017-01-29 00:19:35,0.19,14.30,0.00,20.98,24.72,28.18,14.58,55.60,1007.66,2034.24,927.90,1141.39,1271.08,599.89,594.73,49.06,0000 0000 0000 0000 000000
2017-01-29 00:24:36,0.22,14.31,0.00,20.97,24.70,28.21,14.54,55.58,1007.73,2034.62,927.08,1141.00,1270.75,599.79,594.59,49.11,0000 0000 0000 0000 000000
2017-01-29 00:29:38,0.23,14.32,0.00,20.96,24.70,28.23,14.62,55.58,1007.80,2034.65,926.40,1140.57,1270.05,599.99,594.98,49.16,0000 0000 0000 0000 000000
2017-01-29 00:34:39,0.16,14.33,0.00,20.97,24.70,28.19,14.65,55.81,1007.83,2034.74,925.85,1140.02,1269.65,599.96,595.08,49.21,0000 0000 0000 0000 000000
2017-01-29 00:39:40,0.18,14.34,0.00,20.97,24.69,28.21,14.60,55.44,1007.84,2034.80,925.07,1139.75,1269.01,599.66,594.70,49.26,0000 0000 0000 0000 000000
2017-01-29 00:44:41,0.22,14.35,0.00,20.97,24.68,28.20,14.68,55.35,1007.86,2034.81,924.45,1139.07,1268.46,600.22,595.20,49.31,0000 0000 0000 0000 000000
2017-01-29 00:49:43,0.08,14.36,0.00,20.98,24.67,28.16,14.62,55.38,1007.85,2034.85,923.91,1138.89,1268.01,599.86,594.76,49.36,0000 0000 0000 0000 000000
2017-01-29 00:54:44,0.27,14.37,0.00,21.01,24.67,28.15,14.59,55.27,1007.90,2034.84,923.11,1138.13,1267.42,599.95,594.83,49.41,0000 0000 0000 0000 000000
2017-01-29 00:59:45,0.11,14.38,0.00,21.02,24.67,28.16,14.61,55.41,1007.87,2034.89,922.66,1137.98,1267.00,599.64,594.50,49.46,0000 0000 0000 0000 000000
2017-01-29 01:04:46,0.20,14.39,0.00,21.02,24.66,28.17,14.63,55.36,1007.88,2034.89,922.00,1137.39,1266.31,599.64,594.55,49.52,0000 0000 0000 0000 000000
2017-01-29 01:09:48,0.16,14.40,0.00,21.04,24.65,28.17,14.58,55.34,1007.86,2034.93,921.26,1137.01,1265.97,600.07,594.92,49.57,0000 0000 0000 0000 000000
2017-01-29 01:14:50,0.20,14.40,0.00,21.07,24.65,28.16,14.51,55.34,1008.14,2034.93,920.73,1136.57,1265.20,599.50,594.44,49.62,0000 0000 0000 0000 000000
2017-01-29 01:19:51,0.12,14.42,0.00,21.10,24.65,28.14,14.59,55.35,1008.29,2034.95,920.02,1136.02,1264.95,599.71,594.73,49.67,0000 0000 0000 0000 000000
2017-01-29 01:24:52,0.20,14.42,0.00,21.10,24.65,28.16,14.65,55.42,1008.31,2034.85,919.34,1135.80,1264.17,599.73,594.78,49.72,0000 0000 0000 0000 000000
2017-01-29 01:29:53,0.14,14.43,0.00,21.13,24.65,28.19,14.65,55.32,1008.31,2034.87,918.83,1135.05,1263.92,600.02,594.91,49.77,0000 0000 0000 0000 000000
2017-01-29 01:34:54,0.18,14.44,0.00,21.17,24.67,28.23,14.63,55.45,1008.32,2034.85,918.06,1134.81,1263.11,599.94,594.74,49.82,0000 0000 0000 0000 000000
2017-01-29 01:39:56,0.24,14.45,0.00,21.18,24.67,28.27,14.66,55.60,1008.33,2034.81,917.43,1134.06,1262.68,600.24,595.07,49.87,0000 0000 0000 0000 000000
2017-01-29 01:44:57,0.10,14.46,0.00,21.19,24.67,28.29,14.64,55.47,1008.48,2034.76,916.82,1133.87,1262.02,599.86,594.73,49.92,0000 0000 0000 0000 000000
2017-01-29 01:49:58,0.22,14.47,0.00,21.23,24.68,28.30,14.57,55.32,1008.41,2034.67,916.05,1133.06,1261.46,599.97,594.71,49.97,0000 0000 0000 0000 000000
2017-01-29 01:55:00,0.13,14.47,0.00,21.26,24.70,28.33,14.59,55.48,1008.36,2034.44,915.39,1132.82,1260.95,600.20,594.82,50.02,0000 0000 0000 0000 000000
2017-01-29 02:00:01,0.16,14.48,0.00,21.26,24.70,28.35,14.64,55.43,1008.32,2034.19,914.78,1132.09,1260.13,600.22,594.79,50.07,0000 0000 0000 0000 000000
2017-01-29 02:05:02,0.13,14.49,0.00,21.29,24.71,28.35,14.60,55.43,1008.32,2034.11,914.01,1131.85,1259.78,599.82,594.46,50.12,0000 0000 0000 0000 000000
2017-01-29 02:10:04,0.26,14.50,0.00,21.32,24.72,28.41,14.65,55.59,1008.30,2034.07,913.18,1131.09,1259.03,600.05,594.48,50.17,0000 0000 0000 0000 000000
2017-01-29 02:15:05,0.18,14.51,0.00,21.31,24.73,28.39,14.68,55.83,1007.99,2034.04,912.55,1130.85,1258.44,599.99,594.42,50.22,0000 0000 0000 0000 000000
2017-01-29 02:20:07,0.15,14.52,0.00,21.30,24.75,28.44,14.63,55.86,1008.06,2034.02,911.87,1130.08,1257.97,599.93,594.48,50.27,0000 0000 0000 0000 000000
2017-01-29 02:25:08,0.24,14.53,0.00,21.32,24.76,28.50,14.67,55.93,1008.10,2034.00,911.04,1129.72,1257.17,600.15,594.57,50.32,0000 0000 0000 0000 000000
2017-01-29 02:30:10,0.23,14.54,0.00,21.31,24.77,28.45,14.56,55.88,1008.06,2034.00,910.26,1129.03,1256.63,599.69,593.98,50.38,0000 0000 0000 0000 000000
2017-01-29 02:35:11,0.20,14.55,0.00,21.32,24.79,28.49,14.68,55.77,1008.20,2034.00,909.57,1128.67,1256.02,600.18,594.65,50.43,0000 0000 0000 0000 000000
2017-01-29 02:40:13,0.14,14.56,0.00,21.34,24.80,28.51,14.61,55.86,1008.31,2034.00,908.92,1128.02,1255.40,600.22,594.69,50.48,0000 0000 0000 0000 000000
2017-01-29 02:45:14,0.23,14.57,0.00,21.34,24.82,28.54,14.57,55.77,1008.31,2033.99,908.08,1127.60,1254.88,599.72,594.21,50.53,0000 0000 0000 0000 000000
2017-01-29 02:50:15,0.22,14.59,0.00,21.35,24.83,28.55,14.51,55.63,1008.30,2033.99,907.40,1127.02,1254.08,599.61,594.09,50.58,0000 0000 0000 0000 000000
2017-01-29 02:55:17,0.25,14.59,0.00,21.37,24.85,28.54,14.67,55.84,1008.25,2033.98,906.63,1126.50,1253.50,600.36,594.68,50.63,0000 0000 0000 0000 000000
2017-01-29 03:00:18,0.08,14.61,0.00,21.37,24.86,28.60,14.59,55.67,1008.22,2033.98,905.95,1125.99,1252.97,599.55,593.99,50.68,0000 0000 0000 0000 000000
2017-01-29 03:05:20,0.29,14.62,0.00,21.36,24.87,28.60,14.61,55.60,1008.07,2033.94,905.13,1125.31,1252.17,600.02,594.18,50.73,0000 0000 0000 0000 000000
2017-01-29 03:10:21,0.18,14.63,0.00,21.36,24.88,28.60,14.64,55.38,1008.18,2033.95,904.35,1124.97,1251.69,600.17,594.33,50.78,0000 0000 0000 0000 000000
2017-01-29 03:15:22,0.22,14.64,0.00,21.37,24.90,28.61,14.60,55.34,1008.17,2033.84,903.68,1124.21,1251.00,600.41,594.71,50.83,0000 0000 0000 0000 000000
2017-01-29 03:20:23,0.09,14.65,0.00,21.40,24.90,28.60,14.57,55.43,1008.13,2033.62,902.94,1123.93,1250.20,599.97,594.24,50.88,0000 0000 0000 0000 000000
2017-01-29 03:25:24,0.26,14.66,0.00,21.40,24.92,28.58,14.64,55.52,1007.86,2033.55,902.08,1123.12,1249.81,600.10,594.27,50.93,0000 0000 0000 0000 000000
2017-01-29 03:30:26,0.14,14.66,0.00,21.39,24.92,28.64,14.67,55.65,1007.84,2033.30,901.37,1122.84,1249.05,600.24,594.40,50.98,0000 0000 0000 0000 000000
2017-01-29 03:35:27,0.19,14.67,0.00,21.41,24.94,28.64,14.63,55.61,1007.86,2033.15,900.80,1122.08,1248.52,600.24,594.48,51.03,0000 0000 0000 0000 000000
2017-01-29 03:40:29,0.13,14.68,0.00,21.39,24.95,28.65,14.62,55.64,1007.86,2033.05,900.03,1121.81,1248.00,600.23,594.38,51.08,0000 0000 0000 0000 000000
2017-01-29 03:45:30,0.27,14.69,0.00,21.40,24.95,28.65,14.63,55.48,1008.11,2033.03,899.28,1121.05,1247.28,599.55,593.90,51.13,0000 0000 0000 0000 000000
2017-01-29 03:50:32,0.10,14.70,0.00,21.41,24.97,28.61,14.64,55.32,1008.34,2033.02,898.77,1120.85,1246.81,599.87,594.37,51.18,0000 0000 0000 0000 000000
2017-01-29 03:55:33,0.23,14.71,0.00,21.43,24.97,28.62,14.62,55.24,1008.47,2033.00,898.02,1120.07,1246.05,600.53,594.83,51.23,0000 0000 0000 0000 000000
2017-01-29 04:00:34,0.19,14.72,0.00,21.45,24.97,28.64,14.61,55.27,1008.79,2033.00,897.29,1119.91,1245.60,599.94,594.61,51.28,0000 0000 0000 0000 000000
2017-01-29 04:05:35,0.18,14.73,0.00,21.48,24.98,28.61,14.60,55.44,1008.80,2033.00,896.77,1119.12,1245.00,600.06,594.63,51.34,0000 0000 0000 0000 000000
2017-01-29 04:10:37,0.16,14.74,0.00,21.47,25.00,28.69,14.63,55.57,1008.63,2033.00,896.03,1118.89,1244.38,599.99,594.44,51.39,0000 0000 0000 0000 000000
2017-01-29 04:15:38,0.23,14.75,0.00,21.47,25.00,28.67,14.65,55.58,1008.79,2033.00,895.42,1118.08,1243.95,600.13,594.71,51.44,0000 0000 0000 0000 000000
2017-01-29 04:20:39,0.12,14.76,0.00,21.46,25.02,28.69,14.57,55.59,1008.82,2033.00,894.85,1117.93,1243.14,599.78,594.27,51.49,0000 0000 0000 0000 000000
2017-01-29 04:25:40,0.24,14.77,0.00,21.45,25.02,28.68,14.67,55.83,1008.80,2033.00,894.06,1117.14,1242.77,600.23,594.78,51.54,0000 0000 0000 0000 000000
2017-01-29 04:30:41,0.19,14.78,0.00,21.49,25.04,28.73,14.54,55.48,1008.80,2033.00,893.34,1116.90,1242.04,599.82,594.44,51.59,0000 0000 0000 0000 000000
2017-01-29 04:35:42,0.20,14.79,0.00,21.52,25.05,28.74,14.70,55.56,1008.78,2032.98,892.82,1116.13,1241.53,599.99,594.42,51.64,0000 0000 0000 0000 000000
2017-01-29 04:40:44,0.13,14.80,0.00,21.53,25.05,28.75,14.65,55.67,1008.50,2032.98,892.04,1115.92,1241.01,600.06,594.32,51.69,0000 0000 0000 0000 000000
2017-01-29 04:45:45,0.30,14.81,0.00,21.53,25.07,28.73,14.63,55.67,1008.32,2032.97,891.31,1115.15,1240.28,599.93,594.05,51.74,0000 0000 0000 0000 000000
2017-01-29 04:50:46,0.12,14.82,0.00,21.53,25.07,28.74,14.66,55.72,1008.32,2032.98,890.66,1114.94,1239.95,600.27,594.39,51.79,0000 0000 0000 0000 000000
2017-01-29 04:55:47,0.22,14.83,0.00,21.52,25.08,28.74,14.55,55.72,1008.32,2032.97,889.96,1114.14,1239.13,599.86,594.00,51.84,0000 0000 0000 0000 000000
2017-01-29 05:00:49,0.19,14.84,0.00,21.54,25.09,28.72,14.58,55.88,1008.33,2032.94,889.10,1113.89,1238.66,600.03,594.22,51.89,0000 0000 0000 0000 000000
2017-01-29 05:05:50,0.23,14.85,0.00,21.52,25.10,28.74,14.61,55.77,1008.45,2032.89,888.52,1113.12,1238.02,600.16,594.50,51.94,0000 0000 0000 0000 000000
2017-01-29 05:10:51,0.07,14.86,0.00,21.50,25.10,28.75,14.53,55.51,1008.74,2032.71,887.92,1112.95,1237.42,599.68,594.06,51.99,0000 0000 0000 0000 000000
2017-01-29 05:15:53,0.26,14.87,0.00,21.50,25.10,28.72,14.60,55.58,1008.80,2032.77,887.10,1112.13,1236.99,599.90,594.38,52.04,0000 0000 0000 0000 000000
2017-01-29 05:20:54,0.18,14.88,0.00,21.52,25.12,28.76,14.65,55.76,1008.80,2032.75,886.48,1111.98,1236.25,600.27,594.83,52.09,0000 0000 0000 0000 000000
2017-01-29 05:25:55,0.18,14.89,0.00,21.52,25.12,28.72,14.57,55.51,1008.80,2032.89,885.89,1111.28,1235.93,599.82,594.25,52.14,0000 0000 0000 0000 000000
2017-01-29 05:30:56,0.15,14.90,0.00,21.52,25.12,28.69,14.66,55.64,1008.85,2032.68,885.07,1111.00,1235.14,600.22,594.63,52.19,0000 0000 0000 0000 000000
2017-01-29 05:35:58,0.24,14.90,0.00,21.51,25.12,28.71,14.69,55.55,1008.88,2032.71,884.56,1110.38,1234.83,600.12,594.51,52.25,0000 0000 0000 0000 000000
2017-01-29 05:40:59,0.06,14.91,0.00,21.51,25.13,28.68,14.60,55.59,1008.86,2032.54,883.96,1110.00,1234.05,599.99,594.46,52.30,0000 0000 0000 0000 000000
2017-01-29 05:46:00,0.25,14.92,0.00,21.55,25.14,28.70,14.66,55.64,1008.99,2032.32,883.11,1109.45,1233.64,600.07,594.76,52.35,0000 0000 0000 0000 000000
2017-01-29 05:51:01,0.15,14.93,0.00,21.54,25.15,28.73,14.58,55.61,1009.01,2032.27,882.56,1109.01,1233.01,599.95,594.51,52.40,0000 0000 0000 0000 000000
2017-01-29 05:56:03,0.14,14.94,0.00,21.57,25.15,28.73,14.67,55.70,1008.81,2032.08,881.96,1108.59,1232.47,600.09,594.44,52.45,0000 0000 0000 0000 000000
2017-01-29 06:01:04,0.19,14.95,0.00,21.57,25.15,28.74,14.69,55.62,1008.83,2032.04,881.12,1108.01,1232.00,600.27,594.62,52.50,0000 0000 0000 0000 000000
2017-01-29 06:06:05,0.20,14.96,0.00,21.57,25.17,28.78,14.51,55.63,1008.81,2032.06,880.67,1107.68,1231.34,599.74,594.07,52.55,0000 0000 0000 0000 000000
2017-01-29 06:11:07,0.13,14.97,0.00,21.58,25.17,28.81,14.59,55.59,1008.80,2032.04,880.01,1107.03,1230.95,600.11,594.44,52.60,0000 0000 0000 0000 000000
2017-01-29 06:16:08,0.23,14.98,0.00,21.59,25.17,28.80,14.65,55.51,1008.81,2032.02,879.25,1106.81,1230.16,600.03,594.33,52.65,0000 0000 0000 0000 000000
2017-01-29 06:21:10,0.19,14.99,0.00,21.58,25.18,28.81,14.71,55.56,1008.80,2032.01,878.67,1106.05,1229.86,600.28,594.56,52.70,0000 0000 0000 0000 000000
2017-01-29 06:26:11,0.12,15.00,0.00,21.60,25.20,28.84,14.60,55.55,1008.80,2032.00,878.01,1105.92,1229.07,599.82,594.05,52.75,0000 0000 0000 0000 000000
2017-01-29 06:31:12,0.27,15.01,0.00,21.61,25.20,28.87,14.64,55.52,1008.80,2032.00,877.26,1105.11,1228.75,600.11,594.37,52.80,0000 0000 0000 0000 000000
2017-01-29 06:36:13,0.09,15.01,0.00,21.62,25.20,28.86,14.63,55.53,1008.80,2032.00,876.84,1104.98,1228.03,600.09,594.39,52.85,0000 0000 0000 0000 000000
2017-01-29 06:41:14,0.31,15.02,0.00,21.64,25.22,28.90,14.69,55.83,1008.64,2032.00,875.85,1104.18,1227.65,600.36,594.48,52.90,0000 0000 0000 0000 000000
2017-01-29 06:46:15,0.38,15.04,0.00,21.64,25.22,28.87,14.67,55.87,1008.80,2032.00,874.72,1103.10,1226.44,600.27,594.46,52.95,0000 0000 0000 0000 000000
2017-01-29 06:51:17,0.10,15.05,0.00,21.65,25.22,28.86,14.67,55.84,1008.77,2032.00,874.01,1102.92,1225.96,599.95,594.08,53.00,0000 0000 0000 0000 000000
2017-01-29 06:56:18,0.30,15.07,0.00,21.65,25.22,28.88,14.61,55.90,1008.77,2032.00,873.23,1102.15,1225.17,600.13,594.21,53.05,0000 0000 0000 0000 000000
2017-01-29 07:01:20,0.10,15.07,0.00,21.64,25.24,28.87,14.60,55.75,1008.79,2032.00,872.74,1101.97,1224.85,600.20,594.33,53.11,0000 0000 0000 0000 000000
2017-01-29 07:06:21,0.23,15.09,0.00,21.63,25.25,28.88,14.54,55.83,1008.72,2031.99,872.02,1101.25,1224.07,599.71,593.85,53.16,0000 0000 0000 0000 000000
2017-01-29 07:11:22,0.17,15.09,0.00,21.61,25.25,28.87,14.62,55.83,1008.75,2031.99,871.32,1100.99,1223.81,599.81,593.97,53.21,0000 0000 0000 0000 000000
2017-01-29 07:16:24,0.24,15.10,0.00,21.61,25.25,28.86,14.60,55.73,1008.80,2031.99,870.69,1100.42,1223.05,600.16,594.44,53.26,0000 0000 0000 0000 000000
2017-01-29 07:21:25,0.12,15.11,0.00,21.61,25.25,28.82,14.57,55.73,1008.78,2031.99,870.01,1100.00,1222.68,599.86,594.12,53.31,0000 0000 0000 0000 000000
2017-01-29 07:26:27,0.24,15.12,0.00,21.60,25.25,28.85,14.65,55.81,1008.78,2031.99,869.32,1099.60,1222.02,600.16,594.43,53.36,0000 0000 0000 0000 000000
2017-01-29 07:31:28,0.11,15.13,0.00,21.60,25.25,28.84,14.68,55.77,1008.76,2031.99,868.85,1099.03,1221.64,600.08,594.33,53.41,0000 0000 0000 0000 000000
2017-01-29 07:36:29,0.19,15.14,0.00,21.60,25.25,28.82,14.61,55.77,1008.54,2031.99,868.06,1098.77,1221.02,600.09,594.20,53.46,0000 0000 0000 0000 000000
2017-01-29 07:41:30,0.25,15.15,0.00,21.57,25.26,28.90,14.61,55.76,1008.68,2031.99,867.47,1098.06,1220.59,599.99,594.16,53.51,0000 0000 0000 0000 000000
2017-01-29 07:46:32,0.07,15.16,0.00,21.57,25.25,28.80,14.60,55.77,1008.46,2031.99,866.93,1097.92,1220.01,599.98,594.11,53.56,0000 0000 0000 0000 000000
2017-01-29 07:51:33,0.29,15.17,0.00,21.56,25.25,28.80,14.66,55.83,1008.58,2031.99,866.10,1097.17,1219.47,600.01,594.18,53.61,0000 0000 0000 0000 000000
2017-01-29 07:56:34,0.13,15.18,0.00,21.53,25.25,28.82,14.63,55.92,1008.76,2031.99,865.54,1096.97,1218.99,600.31,594.66,53.66,0000 0000 0000 0000 000000
2017-01-29 08:01:35,0.21,15.19,0.00,21.52,25.25,28.86,14.67,55.91,1008.80,2031.98,864.95,1096.25,1218.32,600.10,594.53,53.71,0000 0000 0000 0000 000000
2017-01-29 08:06:37,0.15,15.20,0.00,21.54,25.25,28.77,14.57,55.78,1009.16,2031.99,864.16,1096.00,1217.99,599.66,594.30,53.76,0000 0000 0000 0000 000000
2017-01-29 08:11:38,0.21,15.21,0.00,21.53,25.25,28.79,14.59,55.73,1009.27,2031.99,863.75,1095.62,1217.29,599.87,594.56,53.81,0000 0000 0000 0000 000000
2017-01-29 08:16:40,0.13,15.22,0.00,21.54,25.24,28.76,14.57,55.80,1009.29,2031.99,863.02,1095.02,1216.95,599.93,594.65,53.86,0000 0000 0000 0000 000000
2017-01-29 08:21:41,0.25,15.23,0.00,21.52,25.23,28.76,14.59,55.79,1009.26,2031.99,862.26,1094.79,1216.18,599.75,594.44,53.91,0000 0000 0000 0000 000000
2017-01-29 08:26:42,0.13,15.24,0.00,21.51,25.22,28.73,14.69,55.75,1009.28,2031.99,861.80,1094.06,1215.94,599.99,594.73,53.96,0000 0000 0000 0000 000000
2017-01-29 08:31:44,0.19,15.25,0.00,21.53,25.22,28.73,14.57,55.83,1009.28,2031.99,861.03,1093.87,1215.15,600.19,594.85,54.02,0000 0000 0000 0000 000000
2017-01-29 08:36:45,0.24,15.26,0.00,21.51,25.22,28.72,14.56,55.73,1009.21,2031.99,860.35,1093.09,1214.97,600.25,594.97,54.07,0000 0000 0000 0000 000000
2017-01-29 08:41:47,0.11,15.26,0.00,21.52,25.22,28.72,14.64,55.74,1009.29,2031.99,859.88,1092.94,1214.21,600.04,594.68,54.12,0000 0000 0000 0000 000000
2017-01-29 08:46:48,0.24,15.28,0.00,21.52,25.22,28.71,14.59,55.67,1009.29,2031.99,859.07,1092.18,1213.93,599.94,594.59,54.17,0000 0000 0000 0000 000000
2017-01-29 08:51:50,0.19,15.29,0.00,21.53,25.22,28.74,14.64,55.91,1009.29,2031.99,858.47,1091.99,1213.13,599.90,594.55,54.22,0000 0000 0000 0000 000000
2017-01-29 08:56:51,0.18,15.30,0.00,21.56,25.22,28.72,14.49,55.83,1009.28,2031.99,857.87,1091.32,1212.79,599.77,594.25,54.27,0000 0000 0000 0000 000000
2017-01-29 09:01:52,0.18,15.31,0.00,21.56,25.22,28.76,14.59,55.82,1009.25,2031.99,857.06,1090.99,1212.06,600.14,594.71,54.32,0000 0000 0000 0000 000000
2017-01-29 09:06:53,0.25,15.31,0.00,21.56,25.22,28.73,14.60,55.79,1009.28,2031.99,856.45,1090.48,1211.77,599.61,594.20,54.37,0000 0000 0000 0000 000000
2017-01-29 09:11:55,0.11,15.33,0.00,21.57,25.22,28.74,14.69,55.81,1009.04,2031.98,855.87,1089.99,1211.03,600.08,594.52,54.42,0000 0000 0000 0000 000000
2017-01-29 09:16:56,0.29,15.34,0.00,21.58,25.22,28.73,14.64,55.85,1009.13,2031.99,855.06,1089.35,1210.34,600.16,594.65,54.47,0000 0000 0000 0000 000000
2017-01-29 09:21:57,0.16,15.35,0.00,21.57,25.22,28.79,14.61,55.92,1008.87,2031.99,854.33,1088.99,1209.93,600.03,594.31,54.52,0000 0000 0000 0000 000000
2017-01-29 09:26:59,0.26,15.36,0.00,21.56,25.22,28.79,14.70,55.94,1009.13,2031.99,853.71,1088.40,1209.12,600.18,594.67,54.57,0000 0000 0000 0000 000000
2017-01-29 09:32:00,0.10,15.37,0.00,21.56,25.22,28.80,14.57,55.95,1009.29,2031.98,853.00,1088.00,1208.87,600.07,594.77,54.62,0000 0000 0000 0000 000000
2017-01-29 09:37:02,0.30,15.38,0.00,21.56,25.22,28.76,14.64,55.98,1009.29,2031.98,852.20,1087.44,1208.06,599.87,594.57,54.67,0000 0000 0000 0000 000000
2017-01-29 09:42:03,0.18,15.39,0.00,21.56,25.22,28.77,14.64,55.91,1009.29,2031.99,851.59,1087.01,1207.68,600.02,594.64,54.72,0000 0000 0000 0000 000000
2017-01-29 09:47:04,0.09,15.40,0.00,21.55,25.22,28.77,14.64,55.88,1009.32,2031.97,850.97,1086.88,1207.03,600.02,594.67,54.77,0000 0000 0000 0000 000000
2017-01-29 09:52:05,0.30,15.41,0.00,21.54,25.22,28.82,14.65,55.90,1009.35,2031.98,850.19,1086.10,1206.50,600.19,594.90,54.83,0000 0000 0000 0000 000000
2017-01-29 09:57:07,0.14,15.42,0.00,21.55,25.22,28.78,14.64,55.77,1009.33,2031.99,849.62,1085.95,1205.99,600.05,594.66,54.88,0000 0000 0000 0000 000000
2017-01-29 10:02:08,0.21,15.43,0.00,21.53,25.22,28.76,14.61,55.91,1009.34,2031.97,848.97,1085.20,1205.33,599.91,594.73,54.93,0000 0000 0000 0000 000000
2017-01-29 10:07:10,0.17,15.44,0.00,21.53,25.22,28.76,14.67,55.94,1009.32,2031.97,848.13,1084.97,1204.91,599.88,594.53,54.98,0000 0000 0000 0000 000000
2017-01-29 10:12:11,0.29,15.45,0.00,21.53,25.22,28.75,14.60,55.83,1009.31,2031.98,847.60,1084.23,1204.12,599.95,594.67,55.03,0000 0000 0000 0000 000000
2017-01-29 10:17:13,0.07,15.46,0.00,21.53,25.22,28.74,14.61,55.77,1009.32,2031.99,846.97,1083.99,1203.79,600.01,594.78,55.08,0000 0000 0000 0000 000000
2017-01-29 10:22:14,0.29,15.47,0.00,21.52,25.22,28.79,14.65,55.91,1009.29,2031.97,846.11,1083.51,1203.04,600.16,594.88,55.13,0000 0000 0000 0000 000000
2017-01-29 10:27:15,0.18,15.48,0.00,21.55,25.22,28.78,14.57,55.75,1009.28,2031.96,845.57,1083.01,1202.67,600.00,594.65,55.18,0000 0000 0000 0000 000000
2017-01-29 10:32:16,0.16,15.49,0.00,21.57,25.22,28.77,14.56,55.73,1009.29,2031.97,844.95,1082.65,1202.02,599.95,594.52,55.23,0000 0000 0000 0000 000000
2017-01-29 10:37:18,0.25,15.50,0.00,21.58,25.22,28.79,14.56,55.77,1009.22,2031.97,844.12,1082.02,1201.46,599.82,594.24,55.28,0000 0000 0000 0000 000000
2017-01-29 10:42:20,0.18,15.51,0.00,21.58,25.22,28.82,14.64,55.70,1009.20,2031.96,843.60,1081.70,1200.99,600.00,594.52,55.33,0000 0000 0000 0000 000000
2017-01-29 10:47:21,0.17,15.52,0.00,21.58,25.22,28.88,14.57,55.80,1009.09,2031.96,842.93,1081.04,1200.31,599.77,594.19,55.38,0000 0000 0000 0000 000000
2017-01-29 10:52:22,0.18,15.53,0.00,21.60,25.22,28.83,14.55,55.73,1008.91,2031.97,842.12,1080.85,1199.98,599.89,594.33,55.43,0000 0000 0000 0000 000000
2017-01-29 10:57:24,0.26,15.54,0.00,21.62,25.24,28.85,14.59,55.76,1008.82,2031.92,841.58,1080.09,1199.20,599.93,594.18,55.48,0000 0000 0000 0000 000000
2017-01-29 11:02:25,0.08,15.55,0.00,21.62,25.25,28.87,14.52,55.77,1008.82,2031.87,840.97,1079.93,1198.83,599.91,594.13,55.53,0000 0000 0000 0000 000000
2017-01-29 11:07:27,0.29,15.56,0.00,21.62,25.25,28.86,14.65,55.83,1008.82,2031.79,840.15,1079.17,1198.08,600.34,594.52,55.58,0000 0000 0000 0000 000000
2017-01-29 11:12:28,0.13,15.57,0.00,21.64,25.25,28.85,14.68,55.69,1009.00,2031.87,839.71,1078.96,1197.80,600.05,594.33,55.63,0000 0000 0000 0000 000000
2017-01-29 11:17:30,0.23,15.58,0.00,21.63,25.25,28.89,14.63,55.77,1009.07,2031.90,839.01,1078.23,1197.05,599.56,593.88,55.68,0000 0000 0000 0000 000000
2017-01-29 11:22:31,0.18,15.59,0.00,21.64,25.25,28.87,14.66,55.77,1009.06,2031.87,838.29,1077.99,1196.73,600.34,594.67,55.74,0000 0000 0000 0000 000000
2017-01-29 11:27:32,0.18,15.60,0.00,21.65,25.26,28.89,14.64,55.85,1009.16,2031.74,837.81,1077.44,1196.04,599.90,594.32,55.79,0000 0000 0000 0000 000000
2017-01-29 11:32:33,0.16,15.61,0.00,21.64,25.27,28.89,14.55,55.72,1009.02,2031.64,837.04,1077.00,1195.63,599.75,594.05,55.84,0000 0000 0000 0000 000000
2017-01-29 11:37:35,0.23,15.61,0.00,21.67,25.27,28.87,14.58,55.76,1008.91,2031.61,836.47,1076.65,1195.01,599.68,593.92,55.89,0000 0000 0000 0000 000000
2017-01-29 11:42:36,0.07,15.62,0.00,21.66,25.27,28.92,14.50,55.67,1008.88,2031.31,835.94,1076.03,1194.49,599.70,593.88,55.94,0000 0000 0000 0000 000000
2017-01-29 11:47:37,0.15,15.63,0.00,21.66,25.27,28.90,14.58,55.73,1008.81,2031.16,835.14,1075.86,1194.00,600.02,594.22,55.99,0000 0000 0000 0000 000000
2017-01-29 11:52:39,0.25,15.64,0.00,21.67,25.28,28.92,14.63,55.66,1008.81,2031.13,834.65,1075.09,1193.42,600.16,594.29,56.04,0000 0000 0000 0000 000000
2017-01-29 11:57:40,0.07,15.65,0.00,21.69,25.30,28.93,14.57,55.58,1008.80,2031.06,834.00,1074.96,1193.00,600.05,594.14,56.09,0000 0000 0000 0000 000000
2017-01-29 12:02:41,0.32,15.66,0.00,21.69,25.30,28.93,14.64,55.87,1008.80,2031.12,833.29,1074.25,1192.45,600.26,594.34,56.14,0000 0000 0000 0000 000000
2017-01-29 12:07:43,0.06,15.67,0.00,21.68,25.30,28.94,14.70,55.83,1008.80,2031.07,832.85,1074.00,1192.00,600.34,594.43,56.19,0000 0000 0000 0000 000000
2017-01-29 12:12:44,0.28,15.68,0.00,21.70,25.31,28.97,14.61,55.82,1008.80,2031.06,832.06,1073.49,1191.41,600.12,594.14,56.24,0000 0000 0000 0000 000000
2017-01-29 12:17:45,0.16,15.69,0.00,21.71,25.32,28.98,14.62,55.77,1008.75,2031.09,831.55,1073.01,1190.99,599.85,593.85,56.29,0000 0000 0000 0000 000000
2017-01-29 12:22:47,0.13,15.70,0.00,21.72,25.32,28.96,14.47,55.69,1008.66,2031.05,831.00,1072.80,1190.33,599.72,593.76,56.34,0000 0000 0000 0000 000000
2017-01-29 12:27:47,0.22,15.71,0.00,21.73,25.33,28.99,14.65,55.83,1008.39,2031.03,830.42,1072.07,1189.99,600.02,593.78,56.39,0000 0000 0000 0000 000000
2017-01-29 12:32:49,0.11,15.72,0.00,21.72,25.35,29.03,14.67,55.91,1008.50,2031.01,829.91,1071.96,1189.30,600.02,593.87,56.44,0000 0000 0000 0000 000000
2017-01-29 12:37:50,0.26,15.73,0.00,21.73,25.35,29.04,14.62,55.78,1008.39,2031.01,829.10,1071.21,1188.97,600.09,593.84,56.49,0000 0000 0000 0000 000000
2017-01-29 12:42:51,0.19,15.74,0.00,21.74,25.36,29.04,14.59,55.89,1008.33,2031.00,828.55,1070.98,1188.21,600.20,593.82,56.54,0000 0000 0000 0000 000000
2017-01-29 12:47:53,0.17,15.75,0.00,21.73,25.37,29.07,14.60,55.88,1008.32,2031.00,827.96,1070.29,1187.93,599.92,593.67,56.60,0000 0000 0000 0000 000000
2017-01-29 12:52:54,0.22,15.76,0.00,21.75,25.37,29.09,14.63,55.89,1008.32,2031.00,827.16,1070.00,1187.13,599.90,593.66,56.65,0000 0000 0000 0000 000000
2017-01-29 12:57:55,0.20,15.76,0.00,21.75,25.39,29.10,14.61,56.10,1008.31,2031.00,826.64,1069.53,1186.89,599.95,593.63,56.70,0000 0000 0000 0000 000000